Hourly Data Report for March 23, 2006

TORONTO CITY
ONTARIO

43°40'00.000" N
79°24'00.000" W
112.50 m
6158355
71508
XTO

Download Data

Hourly Data (March 2006)
Hourly Data Report for March 23, 2006
TIME
LST
Temp Definition
°C
Dew Point Definition
°C
Rel Hum Definition
%
Precip. Amount Definition
mm

Wind Dir Definition
10's deg

Wind Spd Definition
km/h
Visibility Definition
km
Stn Press Definition
kPa
Hmdx Definition


Wind Chill Definition


Weather Definition


00:00 0.4 -4.9 68   LegendMM LegendMM   100.69     LegendNANA
01:00 0.4 -5.1 67   LegendMM LegendMM   100.72     LegendNANA
02:00 0.4 -5.0 67   LegendMM LegendMM   100.75     LegendNANA
03:00 0.5 -4.7 68   LegendMM LegendMM   100.76     LegendNANA
04:00 0.7 -4.7 67   LegendMM LegendMM   100.80     LegendNANA
05:00 0.8 -4.8 66   LegendMM LegendMM   100.81     LegendNANA
06:00 0.7 -4.7 67   LegendMM LegendMM   100.81     LegendNANA
07:00 0.9 -4.8 66   LegendMM LegendMM   100.86     LegendNANA
08:00 1.1 -4.6 66   LegendMM LegendMM   100.90     LegendNANA
09:00 1.6 -4.9 62   LegendMM LegendMM   100.94     LegendNANA
10:00 2.0 -4.9 60   LegendMM LegendMM   100.93     LegendNANA
11:00 2.5 -5.1 57   LegendMM LegendMM   100.91     LegendNANA
12:00 2.3 -3.3 66   LegendMM LegendMM   100.90     LegendNANA
13:00 2.4 -3.6 65   LegendMM LegendMM   100.90     LegendNANA
14:00 2.6 -2.8 68   LegendMM LegendMM   100.87     LegendNANA
15:00 3.4 -2.4 66   LegendMM LegendMM   100.85     LegendNANA
16:00 3.0 -2.7 66   LegendMM LegendMM   100.86     LegendNANA
17:00 2.8 -2.7 67   LegendMM LegendMM   100.89     LegendNANA
18:00 2.9 -2.3 69   LegendMM LegendMM   100.91     LegendNANA
19:00 2.9 -1.8 71   LegendMM LegendMM   100.91     LegendNANA
20:00 3.0 -1.6 72   LegendMM LegendMM   100.88     LegendNANA
21:00 3.0 -1.6 72   LegendMM LegendMM   100.87     LegendNANA
22:00 3.3 -2.4 66   LegendMM LegendMM   100.84     LegendNANA
23:00 2.2 -2.3 72   LegendMM LegendMM   100.80     LegendNANA

Notes on Data Quality.

Legend

  • E = Estimated
  • M = Missing
  • NA = Not Available*
  • [empty] = Indicates an unobserved value
Date modified: